Terminal Aerodrome Forecast
Issued by NWS

Home | Current Version | Previous Version | Text Only | Print | Product List | Glossary On
Versions: 1 2 3 4 5 6 7 8 9 10 11 12 13 14 15 16 17 18 19 20 21 22 23 24 25 26 27 28 29 30 31
000
FTAK31 PANC 291123
TAFAVD
TAF
PAVD 291123Z 2912/3012 09012G20KT P6SM SCT080 BKN150
      TEMPO 2912/2916 07010KT BKN050
     FM291700 VRB05KT P6SM SCT200
     FM300600 09008KT P6SM FEW200
      AMD LTD TO CLD VIS AND WIND=

USA.gov is the U.S. government's official web portal to all federal, state and local government web resources and services.